Location: Prague
(50.0830°N, 14.4670°E)
Time: 03:05:53
(UTC+01:00)

AO-7 - Pass Details

Date: 16 December 2021
Orbit: 1440 x 1459 km, 101.9° (Epoch: 28 January)

Event Time Altitude Azimuth Distance (km) Brightness Sun altitude
Rises 16:59:33 0° 212° (SSW) 4,521 ? -8.9°
Reaches altitude 10° 17:03:21 10° 228° (SW) 3,548 ? -9.5°
Maximum altitude 17:09:01 20° 272° (W) 2,854 ? -10.3°
Drops below altitude 10° 17:14:45 10° 317° (NW) 3,565 ? -11.2°
Sets 17:18:37 0° 334° (NNW) 4,550 ? -11.7°
